When you browse on this site, cookies collect data to enhance your experience and personalize the content and advertising you see.
Visit our Privacy Policy to learn more. By continuing to use the site, you agree to this use of cookies and data.
  • In United Kingdom
  • List of Countries
  • For 7 days
  • Water Temperature
  • Satellite Maps
  • Weather Map
  • Weather Widgets
  • user-avatar
    Login

    Hourly Weather Goranboy

    Today, 21 March, Thursday

    Time Temperature Precipitation Wind Pressure Humidity
    00:00 +7°C° 0.1 mm 4 mps 752 mmHg 91%
    01:00 +7°C° 0.1 mm 3 mps 752 mmHg 92%
    02:00 +7°C° 0.1 mm 2 mps 752 mmHg 93%
    03:00 +7°C° 0.1 mm 2 mps 752 mmHg 94%
    04:00 +7°C° 0 mm 2 mps 752 mmHg 94%
    05:00 +6°C° 0 mm 2 mps 752 mmHg 94%
    06:00 +7°C° 0 mm 1 mps 752 mmHg 94%
    07:00 +8°C° 0 mm 1 mps 752 mmHg 88%
    08:00 +8°C° 0 mm 2 mps 752 mmHg 82%
    09:00 +9°C° 0 mm 2 mps 752 mmHg 75%
    10:00 +10°C° 0 mm 2 mps 752 mmHg 70%
    11:00 +12°C° 0 mm 2 mps 751 mmHg 65%
    12:00 +13°C° 0 mm 2 mps 751 mmHg 60%
    13:00 +14°C° 0 mm 2 mps 751 mmHg 58%
    14:00 +15°C° 0 mm 2 mps 750 mmHg 56%
    15:00 +14°C° 0 mm 3 mps 750 mmHg 54%
    16:00 +14°C° 0 mm 3 mps 750 mmHg 58%
    17:00 +13°C° 0 mm 3 mps 750 mmHg 62%
    18:00 +13°C° 0 mm 4 mps 750 mmHg 65%
    19:00 +12°C° 0 mm 4 mps 751 mmHg 70%
    20:00 +11°C° 0 mm 3 mps 751 mmHg 75%
    21:00 +10°C° 0 mm 3 mps 751 mmHg 79%
    22:00 +10°C° 0 mm 3 mps 751 mmHg 82%
    23:00 +10°C° 0 mm 2 mps 751 mmHg 84%

    Tomorrow, 22 March, Friday

    Time Temperature Precipitation Wind Pressure Humidity
    00:00 +9°C° 0 mm 2 mps 751 mmHg 86%
    01:00 +10°C° 0 mm 1 mps 751 mmHg 87%
    02:00 +10°C° 0 mm 1 mps 751 mmHg 89%
    03:00 +9°C° 0 mm 1 mps 751 mmHg 91%
    04:00 +9°C° 0 mm 1 mps 752 mmHg 92%
    05:00 +8°C° 0 mm 0 mps 752 mmHg 93%
    06:00 +7°C° 0 mm 0 mps 752 mmHg 94%
    07:00 +10°C° 0 mm 1 mps 752 mmHg 84%
    08:00 +10°C° 0 mm 3 mps 752 mmHg 74%
    09:00 +12°C° 0 mm 4 mps 752 mmHg 64%
    10:00 +13°C° 0 mm 4 mps 751 mmHg 56%
    11:00 +14°C° 0 mm 4 mps 751 mmHg 49%
    12:00 +15°C° 0 mm 5 mps 750 mmHg 41%
    13:00 +16°C° 0 mm 5 mps 750 mmHg 38%
    14:00 +17°C° 0 mm 4 mps 749 mmHg 35%
    15:00 +18°C° 0 mm 4 mps 749 mmHg 33%
    16:00 +17°C° 0 mm 3 mps 749 mmHg 34%
    17:00 +17°C° 0 mm 3 mps 749 mmHg 34%
    18:00 +16°C° 0 mm 2 mps 749 mmHg 35%
    19:00 +14°C° 0 mm 3 mps 750 mmHg 33%
    20:00 +13°C° 0 mm 4 mps 750 mmHg 30%
    21:00 +12°C° 0 mm 4 mps 751 mmHg 28%
    22:00 +11°C° 0 mm 4 mps 751 mmHg 32%
    23:00 +10°C° 0 mm 3 mps 751 mmHg 36%

    Day after tomorrow, 23 March, Saturday

    Time Temperature Precipitation Wind Pressure Humidity
    00:00 +10°C° 0 mm 3 mps 751 mmHg 40%
    01:00 +9°C° 0 mm 3 mps 751 mmHg 44%
    02:00 +9°C° 0 mm 2 mps 752 mmHg 47%
    03:00 +9°C° 0 mm 2 mps 752 mmHg 51%
    04:00 +8°C° 0 mm 2 mps 752 mmHg 54%
    05:00 +8°C° 0 mm 2 mps 752 mmHg 57%
    06:00 +8°C° 0 mm 2 mps 752 mmHg 60%
    07:00 +9°C° 0 mm 2 mps 751 mmHg 55%
    08:00 +9°C° 0 mm 2 mps 751 mmHg 50%
    09:00 +10°C° 0 mm 2 mps 751 mmHg 46%
    10:00 +12°C° 0 mm 2 mps 750 mmHg 42%
    11:00 +13°C° 0 mm 2 mps 749 mmHg 38%
    12:00 +13°C° 0 mm 2 mps 748 mmHg 34%
    13:00 +14°C° 0 mm 2 mps 747 mmHg 33%
    14:00 +14°C° 0 mm 2 mps 746 mmHg 32%
    15:00 +15°C° 0 mm 2 mps 746 mmHg 30%
    16:00 +15°C° 0 mm 2 mps 745 mmHg 31%
    17:00 +14°C° 0 mm 2 mps 745 mmHg 32%
    18:00 +14°C° 0 mm 1 mps 745 mmHg 32%
    19:00 +13°C° 0 mm 2 mps 746 mmHg 33%
    20:00 +13°C° 0 mm 2 mps 746 mmHg 34%
    21:00 +11°C° 0 mm 3 mps 746 mmHg 35%
    22:00 +11°C° 0 mm 3 mps 746 mmHg 35%
    23:00 +10°C° 0 mm 3 mps 746 mmHg 36%

    24 March, Sunday

    Time Temperature Precipitation Wind Pressure Humidity
    00:00 +9°C° 0 mm 3 mps 746 mmHg 36%
    01:00 +8°C° 0 mm 4 mps 745 mmHg 37%
    02:00 +8°C° 0 mm 4 mps 745 mmHg 37%
    03:00 +7°C° 0 mm 5 mps 745 mmHg 38%
    04:00 +7°C° 0 mm 5 mps 745 mmHg 41%
    05:00 +7°C° 0 mm 6 mps 745 mmHg 45%
    06:00 +7°C° 0 mm 6 mps 745 mmHg 49%
    07:00 +6°C° 0.1 mm 7 mps 745 mmHg 52%
    08:00 +6°C° 0.1 mm 7 mps 745 mmHg 55%
    09:00 +7°C° 0.1 mm 8 mps 745 mmHg 59%
    10:00 +7°C° 0.1 mm 8 mps 745 mmHg 53%
    11:00 +9°C° 0.1 mm 8 mps 745 mmHg 47%
    12:00 +10°C° 0.1 mm 8 mps 745 mmHg 41%
    13:00 +10°C° 0 mm 8 mps 745 mmHg 40%
    14:00 +10°C° 0 mm 8 mps 744 mmHg 39%
    15:00 +11°C° 0 mm 8 mps 744 mmHg 38%
    16:00 +10°C° 0.1 mm 8 mps 745 mmHg 40%
    17:00 +9°C° 0.1 mm 8 mps 745 mmHg 42%
    18:00 +7°C° 0.1 mm 8 mps 746 mmHg 45%
    19:00 +8°C° 0.4 mm 7 mps 746 mmHg 47%
    20:00 +6°C° 0.4 mm 7 mps 747 mmHg 49%
    21:00 +7°C° 0.4 mm 6 mps 748 mmHg 51%
    22:00 +7°C° 0.1 mm 6 mps 748 mmHg 51%
    23:00 +7°C° 0.1 mm 6 mps 748 mmHg 51%

    25 March, Monday

    Time Temperature Precipitation Wind Pressure Humidity
    00:00 +5°C° 0.1 mm 7 mps 748 mmHg 51%
    01:00 +5°C° 0 mm 6 mps 748 mmHg 51%
    02:00 +5°C° 0 mm 6 mps 748 mmHg 51%
    03:00 +5°C° 0 mm 6 mps 748 mmHg 52%
    04:00 +6°C° 0.1 mm 5 mps 748 mmHg 52%
    05:00 +5°C° 0.1 mm 5 mps 749 mmHg 53%
    06:00 +5°C° 0.1 mm 5 mps 749 mmHg 54%
    07:00 +5°C° 0.1 mm 4 mps 750 mmHg 54%
    08:00 +6°C° 0.1 mm 4 mps 750 mmHg 54%
    09:00 +6°C° 0.1 mm 4 mps 750 mmHg 54%
    10:00 +7°C° 0.1 mm 3 mps 750 mmHg 55%
    11:00 +8°C° 0.1 mm 2 mps 750 mmHg 56%
    12:00 +8°C° 0.1 mm 2 mps 750 mmHg 56%
    13:00 +9°C° 0 mm 2 mps 750 mmHg 56%
    14:00 +10°C° 0 mm 3 mps 750 mmHg 55%
    15:00 +11°C° 0 mm 3 mps 750 mmHg 54%
    16:00 +10°C° 0 mm 4 mps 750 mmHg 57%
    17:00 +10°C° 0 mm 4 mps 750 mmHg 60%
    18:00 +9°C° 0 mm 5 mps 751 mmHg 62%
    19:00 +8°C° 0 mm 5 mps 751 mmHg 65%
    20:00 +8°C° 0 mm 5 mps 752 mmHg 68%
    21:00 +7°C° 0 mm 6 mps 752 mmHg 71%
    22:00 +7°C° 0 mm 5 mps 752 mmHg 69%
    23:00 +6°C° 0 mm 5 mps 752 mmHg 67%

    26 March, Tuesday

    Time Temperature Precipitation Wind Pressure Humidity
    00:00 +6°C° 0 mm 5 mps 752 mmHg 65%
    01:00 +6°C° 0 mm 4 mps 752 mmHg 66%
    02:00 +5°C° 0 mm 4 mps 752 mmHg 68%
    03:00 +5°C° 0 mm 3 mps 752 mmHg 70%
    04:00 +5°C° 0 mm 3 mps 752 mmHg 73%
    05:00 +4°C° 0 mm 3 mps 752 mmHg 76%
    06:00 +4°C° 0 mm 3 mps 752 mmHg 80%
    07:00 +5°C° 0 mm 3 mps 752 mmHg 73%
    08:00 +6°C° 0 mm 4 mps 751 mmHg 67%
    09:00 +7°C° 0 mm 4 mps 751 mmHg 61%
    10:00 +8°C° 0 mm 5 mps 751 mmHg 56%
    11:00 +9°C° 0 mm 6 mps 750 mmHg 50%
    12:00 +10°C° 0 mm 6 mps 750 mmHg 45%
    13:00 +11°C° 0 mm 6 mps 750 mmHg 45%
    14:00 +11°C° 0 mm 6 mps 749 mmHg 45%
    15:00 +11°C° 0 mm 6 mps 749 mmHg 45%
    16:00 +10°C° 0 mm 5 mps 749 mmHg 49%
    17:00 +9°C° 0 mm 5 mps 749 mmHg 52%
    18:00 +10°C° 0 mm 4 mps 749 mmHg 55%
    19:00 +8°C° 0 mm 4 mps 749 mmHg 59%
    20:00 +8°C° 0 mm 3 mps 749 mmHg 62%
    21:00 +8°C° 0 mm 3 mps 750 mmHg 65%
    22:00 +7°C° 0 mm 2 mps 749 mmHg 69%
    23:00 +7°C° 0 mm 2 mps 749 mmHg 72%
    Show more